ONEWEB-0007, 44060

Orbit data source: Space-Track

ONEWEB-0007, 44060 is a payload satellite owned by One Web (UK) in LEO that was launched on Wed, 27 Feb 2019 UTC via a SOYUZ-ST-B launch vehicle from the French Guiana (FRGUI). Payload-class satellites include a variety of spacecraft equipped with specific instruments for various scientific and technological missions. These include communications satellites like Starlink; space stations such as the ISS; scientific satellites like the Hubble; Earth observation satellites from companies like Planet Labs, Umbra, and HawkEye 360; GPS; miniature CubeSats for education and research; and military/defense satellites.

Loading next visibility...
Identifier
44060, 2019-010D
Orbit
LEO
Last TLE update
13 hours ago
Origin
Manufacturer
Airbus/Toulouse
Mission
Operational Commercial Communications
Bus & Motor
ARROW, Unknown motor
Mass
148 kg wet, ~140 kg dry
Launch date (UTC)
2019-02-27 (6 years ago)
Launch vehicle
SOYUZ-ST-B
Launch site
French Guiana (FRGUI)
Object type
Payload
Rocket body
Debris
Shape & HBR
Trap Box + 2 Pan, 5 m
Radar Cross Section
2.957 m², Large (>1 m²)

Expand to show TLE details & history

TLE from 13 hours ago
0 ONEWEB-0007
1 44060U 19010D   25181.87813233  .00000047  00000-0  91318-4 0  9994
2 44060  87.9068 329.2648 0002092 104.3103 255.8260 13.15547827305181
Epoch: 2025-06-30T21:04Z
TLE epoch observation values (Epoch: 2025-06-30T21:04:30.633Z)
Latitude
0.00002°
Longitude
93.95554°
Altitude
1,205.058 km
Speed
7.251 km/s
True Right ascension
21h 57m 03s
True Declination
0° 00' 00"
Sunlit
Object was in full shadow at epoch
Visualization orbit readout
Latitude
37.77442°
Longitude
-87.77104°
Altitude
1,205.785 km
Speed
7.255 km/s
Apparent Right ascension
10h 00m 21s
Apparent Declination
2° 54' 37"
Sunlit
Object is in daylight
Visualization observer readout
Local Sidereal Time
22:12:52
Azimuth
4.59° NNE
Elevation
-47.077°
Doppler factor
1
Orbital elements
Apogee altitude
1,200.471 km
Perigee altitude
1,197.3 km
Semi-major axis
7,577.023 km
Eccentricity
0.00021
Inclination
87.9068°
RAAN
329.2648°
Arg. of periapsis
104.3103°
True anomaly
Unknown
Mean anomaly
255.826°
Eccentric anomaly
Unknown
Mean motion
3.29075 °/min
Orbital period
109.4 mins
BSTAR
0.000091318
Loading maneuver chart data...
Loading SW <> Apogee altitude chart data...
Loading historical data...
Loading historical data...
Loading historical data...
Loading historical data...
Loading historical data...
Loading historical data...
Loading historical data...
Other satellites on launch #10 in the year 2019 (2019-02-27 UTC)

ONEWEB-0007 Visibility forecast

Observer location: undefined°, undefined°

Span
Click to sort rows by Start time (UTC) header in descending order
Start Az.
Max El. time (UTC)
Max El. Az.
Max El.
End time (UTC)
End Az.
10 mins2025-07-01 11:48:24.301Z237.871° WSW2025-07-01 11:53:24.301Z283.869° WNW20.563°2025-07-01 11:58:24.301Z330.122° NNW
12 mins2025-07-01 21:25:24.301Z15.427° NNE2025-07-01 21:30:24.301Z75.104° E37.206°2025-07-01 21:37:24.301Z157.655° S
10 mins2025-07-01 23:15:24.301Z330.08° NNW2025-07-01 23:20:24.301Z275.557° WNW25.622°2025-07-01 23:25:24.301Z228.708° WSW
12 mins2025-07-02 09:41:24.301Z155.352° SSE2025-07-02 09:47:24.301Z77.817° E38.83°2025-07-02 09:53:24.301Z11.765° NNE
|